Cando, ND

4:50 AM CDT on July 24, 2017 (GMT -0500)
Cando

Weather History for K9D7 - November, 2013

Change the Weather History Date:

Tuesday, November 26, 2013

  Actual Average (KDVL) Record (KDVL)
Temperature  
Mean Temperature 8 °F -  
Max Temperature 17 °F 29 °F 57 °F (1963)
Min Temperature 0 °F 14 °F -23 °F (1996)
Degree Days  
Heating Degree Days 56    
Moisture  
Dew Point 4 °F    
Average Humidity 79    
Maximum Humidity 92    
Minimum Humidity 62    
Precipitation  
Precipitation 0.00 in - - ()
Sea Level Pressure  
Sea Level Pressure 30.36 in    
Wind  
Wind Speed 11 mph (NW)    
Max Wind Speed 17 mph    
Max Gust Speed 24 mph    
Visibility 10 miles    
Events      
Averages and records for this station are not official NWS values.
T = Trace of Precipitation, MM = Missing Value Source: NWS Daily Summary

Daily Weather History Graph

Daily Weather History Graph

Search for Another Location

Airport or City:

Trip Planner

Search our weather history database for the weather conditions in past years. The results will help you decide how hot, cold, wet, or windy it might be!

Date:

Astronomy

Nov. 26, 2013 Rise Set
Actual Time 8:01 AM CST 4:47 PM CST
Civil Twilight 7:25 AM CST 5:22 PM CST
Nautical Twilight 6:46 AM CST 6:01 PM CST
Astronomical Twilight 6:09 AM CST 6:39 PM CST
Moon 12:35 AM CST (11/26) 1:23 PM CST (11/26)
Length of Visible Light 9h 56m
Length of Day
8h 45m
Last Quarter, 41% of the Moon is Illuminated
Nov 26
Last Quarter
Dec 2
New
Dec 9
First Quarter
Dec 17
Full
Dec 25
Last Quarter

Hourly Weather History & Observations

Time (CST) Temp. Windchill Dew Point Humidity Pressure Visibility Wind Dir Wind Speed Gust Speed Precip Events Conditions
12:15 AM 12.2 °F -3.7 °F 5.0 °F 73% 30.22 in 10.0 mi NW 15.0 mph - N/A   Clear
12:35 AM 12.2 °F -3.1 °F 5.0 °F 73% 30.24 in 10.0 mi WNW 13.8 mph - N/A   Clear
12:55 AM 10.4 °F -5.4 °F 5.0 °F 79% 30.25 in 10.0 mi WNW 13.8 mph - N/A   Clear
1:15 AM 10.4 °F -4.8 °F 5.0 °F 79% 30.25 in 10.0 mi NW 12.7 mph - N/A   Clear
1:35 AM 10.4 °F -6.0 °F 5.0 °F 79% 30.25 in 10.0 mi NW 15.0 mph - N/A   Mostly Cloudy
1:55 AM 10.4 °F -4.8 °F 5.0 °F 79% 30.26 in 10.0 mi WNW 12.7 mph - N/A   Mostly Cloudy
2:15 AM 8.6 °F -6.3 °F 5.0 °F 85% 30.27 in 10.0 mi WNW 11.5 mph - N/A   Scattered Clouds
2:35 AM 6.8 °F -8.6 °F 3.2 °F 85% 30.28 in 10.0 mi WNW 11.5 mph - N/A   Clear
2:55 AM 6.8 °F -7.8 °F 3.2 °F 85% 30.28 in 10.0 mi WNW 10.4 mph - N/A   Partly Cloudy
3:15 AM 6.8 °F -9.3 °F 3.2 °F 85% 30.28 in 10.0 mi WNW 12.7 mph - N/A   Partly Cloudy
3:35 AM 8.6 °F -5.5 °F 5.0 °F 85% 30.28 in 10.0 mi WNW 10.4 mph - N/A   Clear
3:55 AM 6.8 °F -7.8 °F 5.0 °F 92% 30.29 in 10.0 mi WNW 10.4 mph - N/A   Clear
4:15 AM 8.6 °F -6.3 °F 5.0 °F 85% 30.29 in 10.0 mi WNW 11.5 mph - N/A   Clear
4:35 AM 6.8 °F -9.3 °F 5.0 °F 92% 30.30 in 10.0 mi WNW 12.7 mph - N/A   Clear
4:55 AM 8.6 °F -6.3 °F 5.0 °F 85% 30.32 in 10.0 mi NW 11.5 mph - N/A   Partly Cloudy
5:15 AM 6.8 °F -9.3 °F 5.0 °F 92% 30.32 in 10.0 mi WNW 12.7 mph - N/A   Partly Cloudy
5:35 AM 6.8 °F -8.6 °F 3.2 °F 85% 30.32 in 10.0 mi NW 11.5 mph - N/A   Clear
5:55 AM 10.4 °F -3.3 °F 5.0 °F 79% 30.33 in 10.0 mi NW 10.4 mph - N/A   Clear
6:15 AM 10.4 °F -3.3 °F 5.0 °F 79% 30.34 in 10.0 mi NW 10.4 mph - N/A   Clear
6:35 AM 6.8 °F -7.8 °F 1.4 °F 79% 30.35 in 10.0 mi WNW 10.4 mph - N/A   Clear
6:55 AM 5.0 °F -10.0 °F 1.4 °F 85% 30.35 in 10.0 mi WNW 10.4 mph - N/A   Clear
7:15 AM 6.8 °F -8.6 °F 1.4 °F 79% 30.36 in 10.0 mi NW 11.5 mph - N/A   Clear
7:35 AM 8.6 °F -7.7 °F 5.0 °F 85% 30.36 in 10.0 mi NW 13.8 mph - N/A   Clear
7:55 AM 10.4 °F -5.4 °F 5.0 °F 79% 30.37 in 10.0 mi NNW 13.8 mph - N/A   Clear
8:15 AM 10.4 °F -7.2 °F 5.0 °F 79% 30.38 in 10.0 mi NNW 17.3 mph 23.0 mph N/A   Clear
8:35 AM 10.4 °F -6.6 °F 5.0 °F 79% 30.39 in 10.0 mi NNW 16.1 mph - N/A   Clear
8:55 AM 10.4 °F -5.4 °F 5.0 °F 79% 30.39 in 10.0 mi NNW 13.8 mph - N/A   Clear
9:15 AM 12.2 °F -3.7 °F 6.8 °F 79% 30.40 in 10.0 mi NNW 15.0 mph - N/A   Clear
9:35 AM 14.0 °F -2.0 °F 6.8 °F 73% 30.41 in 10.0 mi NNW 16.1 mph - N/A   Clear
9:55 AM 14.0 °F -2.5 °F 6.8 °F 73% 30.41 in 10.0 mi NNW 17.3 mph 21.9 mph N/A   Clear
10:15 AM 14.0 °F -0.8 °F 6.8 °F 73% 30.41 in 10.0 mi North 13.8 mph 20.7 mph N/A   Clear
10:35 AM 15.8 °F 0.9 °F 5.0 °F 62% 30.41 in 10.0 mi North 15.0 mph 24.2 mph N/A   Clear
10:55 AM 15.8 °F 0.3 °F 6.8 °F 68% 30.43 in 10.0 mi NNW 16.1 mph 21.9 mph N/A   Clear
11:15 AM 15.8 °F 0.9 °F 5.0 °F 62% 30.43 in 10.0 mi North 15.0 mph 21.9 mph N/A   Clear
11:35 AM 17.6 °F 3.7 °F 6.8 °F 63% 30.43 in 10.0 mi NNW 13.8 mph 18.4 mph N/A   Clear
11:55 AM 17.6 °F 3.2 °F 6.8 °F 63% 30.43 in 10.0 mi North 15.0 mph - N/A   Clear
12:15 PM 17.6 °F 3.7 °F 6.8 °F 63% 30.43 in 10.0 mi North 13.8 mph - N/A   Clear
12:35 PM 17.6 °F 3.7 °F 6.8 °F 63% 30.42 in 10.0 mi NNW 13.8 mph - N/A   Clear
12:55 PM 17.6 °F 5.0 °F 6.8 °F 63% 30.43 in 10.0 mi North 11.5 mph - N/A   Clear
1:15 PM 17.6 °F 4.3 °F 6.8 °F 63% 30.43 in 10.0 mi NNW 12.7 mph - N/A   Clear
1:35 PM 17.6 °F 5.7 °F 6.8 °F 63% 30.43 in 10.0 mi NNW 10.4 mph - N/A   Clear
1:55 PM 17.6 °F 3.7 °F 6.8 °F 63% 30.43 in 10.0 mi NNW 13.8 mph - N/A   Partly Cloudy
2:15 PM 17.6 °F 5.7 °F 8.6 °F 68% 30.42 in 10.0 mi NNW 10.4 mph - N/A   Mostly Cloudy
2:35 PM 17.6 °F 5.7 °F 6.8 °F 63% 30.41 in 10.0 mi NNW 10.4 mph - N/A   Partly Cloudy
2:55 PM 17.6 °F 7.3 °F 6.8 °F 63% 30.41 in 10.0 mi North 8.1 mph - N/A   Clear
3:15 PM 17.6 °F 5.7 °F 6.8 °F 63% 30.41 in 10.0 mi NNW 10.4 mph - N/A   Clear
3:35 PM 17.6 °F 7.3 °F 6.8 °F 63% 30.41 in 10.0 mi NNW 8.1 mph - N/A   Clear
3:55 PM 17.6 °F 8.2 °F 6.8 °F 63% 30.41 in 10.0 mi NNW 6.9 mph - N/A   Clear
4:15 PM 17.6 °F 12.3 °F 6.8 °F 63% 30.41 in 10.0 mi North 3.5 mph - N/A   Clear
4:35 PM 15.8 °F 10.2 °F 6.8 °F 68% 30.41 in 10.0 mi NNW 3.5 mph - N/A   Clear
4:55 PM 14.0 °F - 5.0 °F 67% 30.41 in 10.0 mi Calm Calm - N/A   Clear
5:15 PM 10.4 °F - 5.0 °F 79% 30.41 in 10.0 mi Calm Calm - N/A   Clear
5:35 PM 8.6 °F - 3.2 °F 79% 30.41 in 10.0 mi Calm Calm - N/A   Clear
5:55 PM 6.8 °F - 5.0 °F 92% 30.41 in 10.0 mi Calm Calm - N/A   Clear
6:15 PM 5.0 °F -5.6 °F 1.4 °F 85% 30.40 in 10.0 mi West 5.8 mph - N/A   Clear
6:35 PM 5.0 °F -5.6 °F -0.4 °F 78% 30.40 in 10.0 mi West 5.8 mph - N/A   Clear
6:55 PM 3.2 °F -6.2 °F -0.4 °F 85% 30.39 in 10.0 mi West 4.6 mph - N/A   Clear
7:15 PM 1.4 °F -9.9 °F -0.4 °F 92% 30.39 in 10.0 mi WSW 5.8 mph - N/A   Partly Cloudy
7:35 PM 1.4 °F -6.2 °F -0.4 °F 92% 30.39 in 10.0 mi WSW 3.5 mph - N/A   Partly Cloudy
7:55 PM 1.4 °F - -0.4 °F 92% 30.37 in 10.0 mi Calm Calm - N/A   Clear
8:15 PM 1.4 °F - -0.4 °F 92% 30.38 in 10.0 mi Calm Calm - N/A   Clear
8:35 PM -0.4 °F - -2.2 °F 92% 30.38 in 10.0 mi Calm Calm - N/A   Clear
8:55 PM 1.4 °F - -0.4 °F 92% 30.37 in 10.0 mi Calm Calm - N/A   Clear
9:15 PM -0.4 °F - -2.2 °F 92% 30.36 in 10.0 mi Calm Calm - N/A   Mostly Cloudy
9:35 PM -0.4 °F - -2.2 °F 92% 30.36 in 10.0 mi Calm Calm - N/A   Scattered Clouds
9:55 PM -0.4 °F -8.3 °F -2.2 °F 92% 30.36 in 10.0 mi SSE 3.5 mph - N/A   Mostly Cloudy
10:15 PM -0.4 °F -12.0 °F -2.2 °F 92% 30.34 in 10.0 mi South 5.8 mph - N/A   Mostly Cloudy
10:35 PM -0.4 °F -10.4 °F -4.0 °F 85% 30.34 in 10.0 mi SSE 4.6 mph - N/A   Overcast
10:55 PM -0.4 °F -8.3 °F -4.0 °F 85% 30.33 in 10.0 mi SSE 3.5 mph - N/A   Overcast
11:15 PM -0.4 °F -10.4 °F -2.2 °F 92% 30.32 in 10.0 mi South 4.6 mph - N/A   Overcast
11:35 PM -0.4 °F -10.4 °F -2.2 °F 92% 30.32 in 10.0 mi SSE 4.6 mph - N/A   Scattered Clouds
11:55 PM 1.4 °F -9.9 °F -0.4 °F 92% 30.32 in 10.0 mi SE 5.8 mph - N/A   Clear